Time,TemperatureF,DewpointF,PressureIn,WindDirection,WindDirectionDegrees,WindSpeedMPH,WindSpeedGustMPH,Humidity,HourlyPrecipIn,Conditions,Clouds,dailyrainin,SoftwareType,DateUTC
2013-07-05 00:03:00,79.5,49.5,28.43,East,90,5.0,13.0,35,0.00,,,0.00,meteohub,2013-07-05 05:03:00,
2013-07-05 00:08:00,79.3,49.3,28.44,East,90,7.0,13.0,35,0.00,,,0.00,meteohub,2013-07-05 05:08:00,
2013-07-05 00:13:00,79.2,49.1,28.44,NE,45,7.0,14.0,35,0.00,,,0.00,meteohub,2013-07-05 05:13:00,
2013-07-05 00:18:00,78.8,49.6,28.44,SE,135,10.0,14.0,36,0.00,,,0.00,meteohub,2013-07-05 05:18:00,
2013-07-05 00:23:00,78.6,50.2,28.44,East,90,11.0,14.0,37,0.00,,,0.00,meteohub,2013-07-05 05:23:00,
2013-07-05 00:28:00,78.6,50.2,28.44,East,90,6.0,15.0,37,0.00,,,0.00,meteohub,2013-07-05 05:28:00,
2013-07-05 00:33:00,78.6,50.9,28.44,East,90,11.0,15.0,38,0.00,,,0.00,meteohub,2013-07-05 05:33:00,
2013-07-05 00:38:00,78.3,50.5,28.44,SE,135,12.0,12.0,38,0.00,,,0.00,meteohub,2013-07-05 05:38:00,
2013-07-05 00:43:00,78.4,50.7,28.44,East,90,9.0,14.0,38,0.00,,,0.00,meteohub,2013-07-05 05:43:00,
2013-07-05 00:48:00,77.9,50.9,28.44,East,90,12.0,14.0,39,0.00,,,0.00,meteohub,2013-07-05 05:48:00,
2013-07-05 00:53:00,77.9,50.9,28.43,NE,45,10.0,14.0,39,0.00,,,0.00,meteohub,2013-07-05 05:53:00,
2013-07-05 00:59:00,77.9,51.6,28.43,East,90,8.0,13.0,40,0.00,,,0.00,meteohub,2013-07-05 05:59:00,
2013-07-05 01:04:00,77.7,51.4,28.43,NW,315,9.0,12.0,40,0.00,,,0.00,meteohub,2013-07-05 06:04:00,
2013-07-05 01:09:00,77.5,52.0,28.43,SE,135,9.0,13.0,41,0.00,,,0.00,meteohub,2013-07-05 06:09:00,
2013-07-05 01:14:00,77.7,52.2,28.43,East,90,8.0,13.0,41,0.00,,,0.00,meteohub,2013-07-05 06:14:00,
2013-07-05 01:19:00,77.4,52.5,28.43,SE,135,9.0,13.0,42,0.00,,,0.00,meteohub,2013-07-05 06:19:00,
2013-07-05 01:24:00,77.0,52.2,28.44,SE,135,9.0,13.0,42,0.00,,,0.00,meteohub,2013-07-05 06:24:00,
2013-07-05 01:29:00,77.0,52.9,28.44,East,90,8.0,13.0,43,0.00,,,0.00,meteohub,2013-07-05 06:29:00,
2013-07-05 01:34:00,76.6,53.8,28.43,East,90,10.0,13.0,45,0.00,,,0.00,meteohub,2013-07-05 06:34:00,
2013-07-05 01:39:00,76.8,53.8,28.43,East,90,6.0,11.0,45,0.00,,,0.00,meteohub,2013-07-05 06:39:00,
2013-07-05 01:44:00,76.6,54.3,28.43,SE,135,6.0,11.0,46,0.00,,,0.00,meteohub,2013-07-05 06:44:00,
2013-07-05 01:49:00,76.5,54.7,28.44,East,90,12.0,12.0,47,0.00,,,0.00,meteohub,2013-07-05 06:49:00,
2013-07-05 01:54:00,76.3,55.2,28.44,East,90,10.0,14.0,48,0.00,,,0.00,meteohub,2013-07-05 06:54:00,
2013-07-05 01:59:00,76.3,55.8,28.43,SE,135,10.0,14.0,49,0.00,,,0.00,meteohub,2013-07-05 06:59:00,
2013-07-05 02:04:00,76.5,55.9,28.43,East,90,8.0,14.0,49,0.00,,,0.00,meteohub,2013-07-05 07:04:00,
2013-07-05 02:09:00,75.9,55.9,28.44,East,90,7.0,13.0,50,0.00,,,0.00,meteohub,2013-07-05 07:09:00,
2013-07-05 02:14:00,76.1,56.7,28.43,SE,135,13.0,13.0,51,0.00,,,0.00,meteohub,2013-07-05 07:14:00,
2013-07-05 02:19:00,76.1,57.2,28.44,East,90,8.0,12.0,52,0.00,,,0.00,meteohub,2013-07-05 07:19:00,
2013-07-05 02:24:00,75.7,57.4,28.43,ENE,68,12.0,13.0,53,0.00,,,0.00,meteohub,2013-07-05 07:24:00,
2013-07-05 02:29:00,75.7,57.4,28.43,East,90,7.0,13.0,53,0.00,,,0.00,meteohub,2013-07-05 07:29:00,
2013-07-05 02:34:00,75.9,58.1,28.44,SE,135,11.0,12.0,54,0.00,,,0.00,meteohub,2013-07-05 07:34:00,
2013-07-05 02:39:00,76.3,59.0,28.43,NE,45,8.0,13.0,55,0.00,,,0.00,meteohub,2013-07-05 07:39:00,
2013-07-05 02:44:00,76.1,58.8,28.43,East,90,15.0,15.0,55,0.00,,,0.00,meteohub,2013-07-05 07:44:00,
2013-07-05 02:49:00,76.1,58.8,28.43,ESE,113,6.0,13.0,55,0.00,,,0.00,meteohub,2013-07-05 07:49:00,
2013-07-05 02:54:00,75.9,59.2,28.43,SE,135,12.0,15.0,56,0.00,,,0.00,meteohub,2013-07-05 07:54:00,
2013-07-05 02:59:00,75.9,59.2,28.43,SE,135,8.0,15.0,56,0.00,,,0.00,meteohub,2013-07-05 07:59:00,
2013-07-05 03:04:00,75.7,59.0,28.43,East,90,9.0,12.0,56,0.00,,,0.00,meteohub,2013-07-05 08:04:00,
2013-07-05 03:09:00,75.2,59.0,28.43,South,180,11.0,12.0,57,0.00,,,0.00,meteohub,2013-07-05 08:09:00,
2013-07-05 03:14:00,75.0,58.8,28.43,East,90,11.0,12.0,57,0.00,,,0.00,meteohub,2013-07-05 08:14:00,
2013-07-05 03:19:00,75.4,59.0,28.43,East,90,8.0,11.0,57,0.00,,,0.00,meteohub,2013-07-05 08:19:00,
2013-07-05 03:24:00,75.2,59.4,28.43,SE,135,8.0,14.0,58,0.00,,,0.00,meteohub,2013-07-05 08:24:00,
2013-07-05 03:29:00,74.8,59.0,28.43,East,90,6.0,14.0,58,0.00,,,0.00,meteohub,2013-07-05 08:29:00,
2013-07-05 03:34:00,74.8,59.0,28.42,East,90,8.0,14.0,58,0.00,,,0.00,meteohub,2013-07-05 08:34:00,
2013-07-05 03:39:00,74.5,58.8,28.43,East,90,8.0,14.0,58,0.00,,,0.00,meteohub,2013-07-05 08:39:00,
2013-07-05 03:44:00,74.1,58.5,28.43,East,90,8.0,10.0,58,0.00,,,0.00,meteohub,2013-07-05 08:44:00,
2013-07-05 03:49:00,74.1,58.8,28.43,East,90,8.0,12.0,59,0.00,,,0.00,meteohub,2013-07-05 08:49:00,
2013-07-05 03:54:00,73.9,58.6,28.43,SE,135,7.0,12.0,59,0.00,,,0.00,meteohub,2013-07-05 08:54:00,
2013-07-05 03:59:00,73.8,59.0,28.43,East,90,7.0,12.0,60,0.00,,,0.00,meteohub,2013-07-05 08:59:00,
2013-07-05 04:04:00,73.6,58.8,28.43,SE,135,7.0,9.0,60,0.00,,,0.00,meteohub,2013-07-05 09:04:00,
2013-07-05 04:10:00,73.8,59.0,28.43,East,90,8.0,8.0,60,0.00,,,0.00,meteohub,2013-07-05 09:10:00,
2013-07-05 04:15:00,73.6,58.8,28.43,SE,135,7.0,12.0,60,0.00,,,0.00,meteohub,2013-07-05 09:15:00,
2013-07-05 04:20:00,73.4,58.6,28.43,East,90,6.0,12.0,60,0.00,,,0.00,meteohub,2013-07-05 09:20:00,
2013-07-05 04:25:00,72.7,58.5,28.43,SE,135,4.0,12.0,61,0.00,,,0.00,meteohub,2013-07-05 09:25:00,
2013-07-05 04:30:00,72.5,58.3,28.43,East,90,5.0,8.0,61,0.00,,,0.00,meteohub,2013-07-05 09:30:00,
2013-07-05 04:35:00,72.3,58.6,28.43,East,90,8.0,9.0,62,0.00,,,0.00,meteohub,2013-07-05 09:35:00,
2013-07-05 04:40:00,72.3,59.0,28.43,East,90,1.0,9.0,63,0.00,,,0.00,meteohub,2013-07-05 09:40:00,
2013-07-05 04:45:00,72.0,58.6,28.43,SE,135,2.0,9.0,63,0.00,,,0.00,meteohub,2013-07-05 09:45:00,
2013-07-05 04:51:00,71.6,58.8,28.43,SE,135,1.0,8.0,64,0.00,,,0.00,meteohub,2013-07-05 09:51:00,
2013-07-05 04:56:00,71.8,59.0,28.43,East,90,4.0,6.0,64,0.00,,,0.00,meteohub,2013-07-05 09:56:00,
2013-07-05 05:01:00,71.8,59.0,28.43,East,90,6.0,6.0,64,0.00,,,0.00,meteohub,2013-07-05 10:01:00,
2013-07-05 05:06:00,71.6,58.8,28.43,East,90,2.0,8.0,64,0.00,,,0.00,meteohub,2013-07-05 10:06:00,
2013-07-05 05:12:00,71.1,58.6,28.43,East,90,2.0,8.0,65,0.00,,,0.00,meteohub,2013-07-05 10:12:00,
2013-07-05 05:17:00,71.1,59.2,28.43,NE,45,7.0,8.0,66,0.00,,,0.00,meteohub,2013-07-05 10:17:00,
2013-07-05 05:22:00,70.9,59.0,28.43,East,90,1.0,9.0,66,0.00,,,0.00,meteohub,2013-07-05 10:22:00,
2013-07-05 05:27:00,70.7,58.8,28.42,SE,135,9.0,9.0,66,0.00,,,0.00,meteohub,2013-07-05 10:27:00,
2013-07-05 05:32:00,70.5,59.0,28.43,SE,135,8.0,10.0,67,0.00,,,0.00,meteohub,2013-07-05 10:32:00,
2013-07-05 05:37:00,70.2,58.6,28.43,SE,135,6.0,10.0,67,0.00,,,0.00,meteohub,2013-07-05 10:37:00,
2013-07-05 05:42:00,70.3,59.4,28.43,ESE,113,7.0,9.0,68,0.00,,,0.00,meteohub,2013-07-05 10:42:00,
2013-07-05 05:47:00,70.0,59.0,28.43,East,90,10.0,10.0,68,0.00,,,0.00,meteohub,2013-07-05 10:47:00,
2013-07-05 05:52:00,69.6,59.4,28.43,SE,135,11.0,11.0,70,0.00,,,0.00,meteohub,2013-07-05 10:52:00,
2013-07-05 05:57:00,69.4,59.2,28.43,NE,45,1.0,11.0,70,0.00,,,0.00,meteohub,2013-07-05 10:57:00,
2013-07-05 06:03:00,69.3,59.5,28.43,SE,135,6.0,11.0,71,0.00,,,0.00,meteohub,2013-07-05 11:03:00,
2013-07-05 06:08:00,69.4,59.5,28.43,ESE,113,1.0,11.0,71,0.00,,,0.00,meteohub,2013-07-05 11:08:00,
2013-07-05 06:14:00,69.1,59.7,28.44,NE,45,8.0,8.0,72,0.00,,,0.00,meteohub,2013-07-05 11:14:00,
2013-07-05 06:19:00,69.3,59.9,28.43,East,90,8.0,10.0,72,0.00,,,0.00,meteohub,2013-07-05 11:19:00,
2013-07-05 06:24:00,69.1,59.7,28.43,SE,135,1.0,10.0,72,0.00,,,0.00,meteohub,2013-07-05 11:24:00,
2013-07-05 06:29:00,68.7,59.4,28.44,East,90,1.0,10.0,72,0.00,,,0.00,meteohub,2013-07-05 11:29:00,
2013-07-05 06:34:00,68.9,59.9,28.44,East,90,10.0,10.0,73,0.00,,,0.00,meteohub,2013-07-05 11:34:00,
2013-07-05 06:39:00,69.1,59.7,28.44,NE,45,12.0,12.0,72,0.00,,,0.00,meteohub,2013-07-05 11:39:00,
2013-07-05 06:44:00,68.9,59.5,28.44,East,90,8.0,11.0,72,0.00,,,0.00,meteohub,2013-07-05 11:44:00,
2013-07-05 06:49:00,69.3,60.3,28.44,East,90,11.0,12.0,73,0.00,,,0.00,meteohub,2013-07-05 11:49:00,
2013-07-05 06:54:00,69.1,59.7,28.45,East,90,8.0,12.0,72,0.00,,,0.00,meteohub,2013-07-05 11:54:00,
2013-07-05 06:59:00,69.4,60.1,28.45,East,90,9.0,11.0,72,0.00,,,0.00,meteohub,2013-07-05 11:59:00,
2013-07-05 07:04:00,69.4,60.1,28.45,North,0,7.0,11.0,72,0.00,,,0.00,meteohub,2013-07-05 12:04:00,
2013-07-05 07:11:00,69.4,60.1,28.45,SE,135,9.0,11.0,72,0.00,,,0.00,meteohub,2013-07-05 12:11:00,
2013-07-05 07:16:00,69.4,60.1,28.45,NE,45,5.0,13.0,72,0.00,,,0.00,meteohub,2013-07-05 12:16:00,
2013-07-05 07:22:00,69.6,60.3,28.45,East,90,2.0,13.0,72,0.00,,,0.00,meteohub,2013-07-05 12:22:00,
2013-07-05 07:27:00,69.3,59.9,28.45,East,90,1.0,13.0,72,0.00,,,0.00,meteohub,2013-07-05 12:27:00,
2013-07-05 07:32:00,69.4,60.1,28.45,East,90,6.0,11.0,72,0.00,,,0.00,meteohub,2013-07-05 12:32:00,
2013-07-05 07:37:00,70.2,60.6,28.45,East,90,2.0,12.0,72,0.00,,,0.00,meteohub,2013-07-05 12:37:00,
2013-07-05 07:42:00,70.3,60.4,28.45,SSE,158,10.0,12.0,71,0.00,,,0.00,meteohub,2013-07-05 12:42:00,
2013-07-05 07:47:00,70.7,60.4,28.46,NE,45,4.0,12.0,70,0.00,,,0.00,meteohub,2013-07-05 12:47:00,
2013-07-05 07:52:00,70.9,60.3,28.46,East,90,9.0,13.0,69,0.00,,,0.00,meteohub,2013-07-05 12:52:00,
2013-07-05 07:57:00,71.2,60.6,28.46,East,90,10.0,13.0,69,0.00,,,0.00,meteohub,2013-07-05 12:57:00,
2013-07-05 08:02:00,71.4,60.3,28.46,East,90,1.0,13.0,68,0.00,,,0.00,meteohub,2013-07-05 13:02:00,
2013-07-05 08:07:00,72.3,60.3,28.46,East,90,15.0,15.0,66,0.00,,,0.00,meteohub,2013-07-05 13:07:00,
2013-07-05 08:12:00,72.5,60.1,28.47,East,90,8.0,15.0,65,0.00,,,0.00,meteohub,2013-07-05 13:12:00,
2013-07-05 08:17:00,73.2,60.3,28.47,East,90,10.0,15.0,64,0.00,,,0.00,meteohub,2013-07-05 13:17:00,
2013-07-05 08:22:00,73.4,60.1,28.47,East,90,9.0,15.0,63,0.00,,,0.00,meteohub,2013-07-05 13:22:00,
2013-07-05 08:27:00,73.9,59.7,28.47,SE,135,7.0,12.0,61,0.00,,,0.00,meteohub,2013-07-05 13:27:00,
2013-07-05 08:32:00,74.7,59.4,28.47,SE,135,9.0,11.0,59,0.00,,,0.00,meteohub,2013-07-05 13:32:00,
2013-07-05 08:37:00,75.4,59.5,28.48,NE,45,8.0,10.0,58,0.00,,,0.00,meteohub,2013-07-05 13:37:00,
2013-07-05 08:42:00,75.6,59.7,28.47,ESE,113,7.0,11.0,58,0.00,,,0.00,meteohub,2013-07-05 13:42:00,
2013-07-05 08:47:00,76.1,59.7,28.47,East,90,9.0,11.0,57,0.00,,,0.00,meteohub,2013-07-05 13:47:00,
2013-07-05 08:52:00,76.5,59.2,28.47,NE,45,12.0,12.0,55,0.00,,,0.00,meteohub,2013-07-05 13:52:00,
2013-07-05 08:57:00,77.0,59.0,28.47,NE,45,8.0,12.0,54,0.00,,,0.00,meteohub,2013-07-05 13:57:00,
2013-07-05 09:02:00,77.0,58.6,28.47,SE,135,8.0,12.0,53,0.00,,,0.00,meteohub,2013-07-05 14:02:00,
2013-07-05 09:07:00,78.1,58.5,28.47,East,90,5.0,12.0,51,0.00,,,0.00,meteohub,2013-07-05 14:07:00,
2013-07-05 09:12:00,79.0,58.1,28.47,East,90,8.0,12.0,49,0.00,,,0.00,meteohub,2013-07-05 14:12:00,
2013-07-05 09:17:00,79.5,57.6,28.47,NE,45,3.0,10.0,47,0.00,,,0.00,meteohub,2013-07-05 14:17:00,
2013-07-05 09:22:00,80.2,57.6,28.47,East,90,6.0,10.0,46,0.00,,,0.00,meteohub,2013-07-05 14:22:00,
2013-07-05 09:28:00,80.6,56.1,28.47,SE,135,7.0,10.0,43,0.00,,,0.00,meteohub,2013-07-05 14:28:00,
2013-07-05 09:33:00,81.3,56.7,28.47,SE,135,4.0,8.0,43,0.00,,,0.00,meteohub,2013-07-05 14:33:00,
2013-07-05 09:38:00,81.9,56.5,28.47,SE,135,6.0,8.0,42,0.00,,,0.00,meteohub,2013-07-05 14:38:00,
2013-07-05 09:43:00,82.4,56.3,28.47,SSE,158,7.0,9.0,41,0.00,,,0.00,meteohub,2013-07-05 14:43:00,
2013-07-05 09:48:00,82.6,55.8,28.47,East,90,8.0,9.0,40,0.00,,,0.00,meteohub,2013-07-05 14:48:00,
2013-07-05 09:53:00,82.6,55.0,28.47,East,90,10.0,11.0,39,0.00,,,0.00,meteohub,2013-07-05 14:53:00,
2013-07-05 09:58:00,82.9,55.4,28.46,East,90,4.0,11.0,39,0.00,,,0.00,meteohub,2013-07-05 14:58:00,
2013-07-05 10:04:00,83.3,55.0,28.47,South,180,6.0,11.0,38,0.00,,,0.00,meteohub,2013-07-05 15:04:00,
2013-07-05 10:09:00,83.8,54.9,28.47,SE,135,4.0,11.0,37,0.00,,,0.00,meteohub,2013-07-05 15:09:00,
2013-07-05 10:14:00,84.6,54.0,28.47,East,90,6.0,11.0,35,0.00,,,0.00,meteohub,2013-07-05 15:14:00,
2013-07-05 10:19:00,84.9,55.0,28.46,East,90,4.0,11.0,36,0.00,,,0.00,meteohub,2013-07-05 15:19:00,
2013-07-05 10:24:00,85.5,54.7,28.46,NE,45,8.0,8.0,35,0.00,,,0.00,meteohub,2013-07-05 15:24:00,
2013-07-05 10:29:00,85.8,54.1,28.46,East,90,8.0,10.0,34,0.00,,,0.00,meteohub,2013-07-05 15:29:00,
2013-07-05 10:34:00,85.6,54.0,28.46,SE,135,5.0,10.0,34,0.00,,,0.00,meteohub,2013-07-05 15:34:00,
2013-07-05 10:39:00,86.2,52.9,28.46,SW,225,15.0,15.0,32,0.00,,,0.00,meteohub,2013-07-05 15:39:00,
2013-07-05 10:44:00,86.5,54.0,28.45,SE,135,8.0,13.0,33,0.00,,,0.00,meteohub,2013-07-05 15:44:00,
2013-07-05 10:49:00,87.4,53.1,28.46,East,90,8.0,15.0,31,0.00,,,0.00,meteohub,2013-07-05 15:49:00,
2013-07-05 10:50:00,87.4,53.1,28.45,South,180,10.0,15.0,31,0.00,,,0.00,meteohub,2013-07-05 15:50:00,
2013-07-05 10:55:00,88.2,52.9,28.45,South,180,6.0,15.0,30,0.00,,,0.00,meteohub,2013-07-05 15:55:00,
2013-07-05 11:00:00,88.5,51.3,28.45,South,180,15.0,15.0,28,0.00,,,0.00,meteohub,2013-07-05 16:00:00,
2013-07-05 11:05:00,88.5,51.3,28.45,South,180,9.0,15.0,28,0.00,,,0.00,meteohub,2013-07-05 16:05:00,
2013-07-05 11:10:00,88.9,50.5,28.45,South,180,8.0,15.0,27,0.00,,,0.00,meteohub,2013-07-05 16:10:00,
2013-07-05 11:15:00,89.2,51.8,28.45,South,180,7.0,15.0,28,0.00,,,0.00,meteohub,2013-07-05 16:15:00,
2013-07-05 11:16:00,89.4,51.1,28.45,South,180,11.0,15.0,27,0.00,,,0.00,meteohub,2013-07-05 16:16:00,
2013-07-05 11:21:00,89.4,51.1,28.45,South,180,8.0,14.0,27,0.00,,,0.00,meteohub,2013-07-05 16:21:00,
2013-07-05 11:26:00,90.1,51.6,28.45,SE,135,7.0,14.0,27,0.00,,,0.00,meteohub,2013-07-05 16:26:00,
2013-07-05 11:31:00,90.1,51.6,28.46,South,180,4.0,15.0,27,0.00,,,0.00,meteohub,2013-07-05 16:31:00,
2013-07-05 11:36:00,90.1,51.6,28.46,South,180,6.0,15.0,27,0.00,,,0.00,meteohub,2013-07-05 16:36:00,
2013-07-05 11:41:00,90.3,51.8,28.45,SW,225,8.0,15.0,27,0.00,,,0.00,meteohub,2013-07-05 16:41:00,
2013-07-05 11:46:00,90.7,50.0,28.45,South,180,11.0,12.0,25,0.00,,,0.00,meteohub,2013-07-05 16:46:00,
2013-07-05 11:51:00,91.0,50.4,28.46,South,180,12.0,16.0,25,0.00,,,0.00,meteohub,2013-07-05 16:51:00,
2013-07-05 11:56:00,91.6,51.8,28.45,South,180,11.0,16.0,26,0.00,,,0.00,meteohub,2013-07-05 16:56:00,
2013-07-05 12:01:00,92.3,50.4,28.45,South,180,12.0,16.0,24,0.00,,,0.00,meteohub,2013-07-05 17:01:00,
2013-07-05 12:06:00,92.3,51.4,28.45,South,180,10.0,12.0,25,0.00,,,0.00,meteohub,2013-07-05 17:06:00,
2013-07-05 12:11:00,93.2,51.1,28.44,South,180,6.0,12.0,24,0.00,,,0.00,meteohub,2013-07-05 17:11:00,
2013-07-05 12:16:00,93.0,50.9,28.43,SE,135,8.0,12.0,24,0.00,,,0.00,meteohub,2013-07-05 17:16:00,
2013-07-05 12:21:00,92.8,50.7,28.43,South,180,11.0,12.0,24,0.00,,,0.00,meteohub,2013-07-05 17:21:00,
2013-07-05 12:26:00,93.4,50.0,28.44,SW,225,15.0,15.0,23,0.00,,,0.00,meteohub,2013-07-05 17:26:00,
2013-07-05 12:31:00,93.7,50.4,28.43,South,180,17.0,17.0,23,0.00,,,0.00,meteohub,2013-07-05 17:31:00,
2013-07-05 12:36:00,93.9,50.5,28.43,East,90,12.0,17.0,23,0.00,,,0.00,meteohub,2013-07-05 17:36:00,
2013-07-05 12:41:00,95.0,47.7,28.43,West,270,15.0,17.0,20,0.00,,,0.00,meteohub,2013-07-05 17:41:00,
2013-07-05 12:47:00,94.8,50.0,28.43,South,180,5.0,17.0,22,0.00,,,0.00,meteohub,2013-07-05 17:47:00,
2013-07-05 12:52:00,95.4,49.3,28.42,SE,135,10.0,15.0,21,0.00,,,0.00,meteohub,2013-07-05 17:52:00,
2013-07-05 12:57:00,95.5,48.0,28.42,East,90,8.0,15.0,20,0.00,,,0.00,meteohub,2013-07-05 17:57:00,
2013-07-05 13:02:00,95.9,46.9,28.42,South,180,15.0,15.0,19,0.00,,,0.00,meteohub,2013-07-05 18:02:00,
2013-07-05 13:07:00,95.0,47.7,28.42,SE,135,8.0,17.0,20,0.00,,,0.00,meteohub,2013-07-05 18:07:00,
2013-07-05 13:12:00,95.5,48.0,28.41,SE,135,7.0,17.0,20,0.00,,,0.00,meteohub,2013-07-05 18:12:00,
2013-07-05 13:17:00,96.3,47.3,28.42,SE,135,8.0,17.0,19,0.00,,,0.00,meteohub,2013-07-05 18:17:00,
2013-07-05 13:22:00,96.4,46.0,28.41,SE,135,17.0,17.0,18,0.00,,,0.00,meteohub,2013-07-05 18:22:00,
2013-07-05 13:27:00,96.3,45.9,28.41,SE,135,9.0,17.0,18,0.00,,,0.00,meteohub,2013-07-05 18:27:00,
2013-07-05 13:32:00,97.2,46.6,28.41,East,90,8.0,17.0,18,0.00,,,0.00,meteohub,2013-07-05 18:32:00,
2013-07-05 13:37:00,97.2,46.6,28.40,SE,135,7.0,17.0,18,0.00,,,0.00,meteohub,2013-07-05 18:37:00,
2013-07-05 13:42:00,97.3,41.9,28.40,South,180,12.0,16.0,15,0.00,,,0.00,meteohub,2013-07-05 18:42:00,
2013-07-05 13:47:00,97.0,43.3,28.40,South,180,12.0,17.0,16,0.00,,,0.00,meteohub,2013-07-05 18:47:00,
2013-07-05 13:52:00,97.3,40.1,28.40,SW,225,9.0,17.0,14,0.00,,,0.00,meteohub,2013-07-05 18:52:00,
2013-07-05 13:57:00,97.9,44.1,28.40,NE,45,6.0,17.0,16,0.00,,,0.00,meteohub,2013-07-05 18:57:00,
2013-07-05 14:02:00,98.2,42.6,28.39,East,90,10.0,13.0,15,0.00,,,0.00,meteohub,2013-07-05 19:02:00,
2013-07-05 14:07:00,97.9,42.4,28.39,South,180,12.0,15.0,15,0.00,,,0.00,meteohub,2013-07-05 19:07:00,
2013-07-05 14:08:00,97.9,42.4,28.39,South,180,12.0,15.0,15,0.00,,,0.00,meteohub,2013-07-05 19:08:00,
2013-07-05 14:13:00,97.3,41.9,28.38,South,180,12.0,15.0,15,0.00,,,0.00,meteohub,2013-07-05 19:13:00,
2013-07-05 14:18:00,97.7,43.9,28.39,East,90,12.0,19.0,16,0.00,,,0.00,meteohub,2013-07-05 19:18:00,
2013-07-05 14:23:00,98.8,39.4,28.38,SE,135,8.0,19.0,13,0.00,,,0.00,meteohub,2013-07-05 19:23:00,
2013-07-05 14:28:00,98.4,37.0,28.38,South,180,10.0,19.0,12,0.00,,,0.00,meteohub,2013-07-05 19:28:00,
2013-07-05 14:33:00,98.4,41.0,28.38,East,90,7.0,16.0,14,0.00,,,0.00,meteohub,2013-07-05 19:33:00,
2013-07-05 14:39:00,99.3,37.8,28.38,SE,135,7.0,18.0,12,0.00,,,0.00,meteohub,2013-07-05 19:39:00,
2013-07-05 14:44:00,98.6,37.2,28.38,South,180,8.0,18.0,12,0.00,,,0.00,meteohub,2013-07-05 19:44:00,
2013-07-05 14:49:00,98.4,37.0,28.37,SE,135,13.0,18.0,12,0.00,,,0.00,meteohub,2013-07-05 19:49:00,
2013-07-05 14:54:00,98.8,39.4,28.37,South,180,4.0,17.0,13,0.00,,,0.00,meteohub,2013-07-05 19:54:00,
2013-07-05 14:59:00,99.5,35.8,28.37,East,90,10.0,17.0,11,0.00,,,0.00,meteohub,2013-07-05 19:59:00,
2013-07-05 15:04:00,99.5,33.3,28.36,SE,135,15.0,16.0,10,0.00,,,0.00,meteohub,2013-07-05 20:04:00,
2013-07-05 15:09:00,99.9,36.0,28.36,East,90,8.0,15.0,11,0.00,,,0.00,meteohub,2013-07-05 20:09:00,
2013-07-05 15:14:00,99.9,36.0,28.36,East,90,6.0,15.0,11,0.00,,,0.00,meteohub,2013-07-05 20:14:00,
2013-07-05 15:19:00,100.8,99.9,28.35,South,180,10.0,16.0,0,0.00,,,0.00,meteohub,2013-07-05 20:19:00,
2013-07-05 15:24:00,100.9,99.9,28.35,NNW,338,9.0,16.0,0,0.00,,,0.00,meteohub,2013-07-05 20:24:00,
2013-07-05 15:29:00,101.5,99.9,28.36,SW,225,15.0,16.0,0,0.00,,,0.00,meteohub,2013-07-05 20:29:00,
2013-07-05 15:34:00,101.3,99.9,28.35,South,180,8.0,15.0,0,0.00,,,0.00,meteohub,2013-07-05 20:34:00,
2013-07-05 15:39:00,101.1,99.9,28.35,South,180,10.0,15.0,0,0.00,,,0.00,meteohub,2013-07-05 20:39:00,
2013-07-05 15:44:00,100.9,99.9,28.35,SW,225,10.0,15.0,0,0.00,,,0.00,meteohub,2013-07-05 20:44:00,
2013-07-05 15:49:00,100.6,99.9,28.35,East,90,10.0,15.0,0,0.00,,,0.00,meteohub,2013-07-05 20:49:00,
2013-07-05 15:54:00,100.2,99.9,28.35,SE,135,9.0,15.0,0,0.00,,,0.00,meteohub,2013-07-05 20:54:00,
2013-07-05 15:59:00,100.2,99.9,28.34,South,180,8.0,13.0,0,0.00,,,0.00,meteohub,2013-07-05 20:59:00,
2013-07-05 16:04:00,100.2,99.9,28.34,SE,135,15.0,15.0,0,0.00,,,0.00,meteohub,2013-07-05 21:04:00,
2013-07-05 16:09:00,99.5,99.5,28.34,SW,225,8.0,15.0,0,0.00,,,0.00,meteohub,2013-07-05 21:09:00,
2013-07-05 16:14:00,99.1,99.1,28.34,SE,135,9.0,17.0,0,0.00,,,0.00,meteohub,2013-07-05 21:14:00,
2013-07-05 16:19:00,100.4,99.9,28.34,SE,135,10.0,17.0,0,0.00,,,0.00,meteohub,2013-07-05 21:19:00,
2013-07-05 16:24:00,100.6,99.9,28.33,South,180,8.0,17.0,0,0.00,,,0.00,meteohub,2013-07-05 21:24:00,
2013-07-05 16:29:00,100.9,99.9,28.33,SSE,158,13.0,15.0,0,0.00,,,0.00,meteohub,2013-07-05 21:29:00,
2013-07-05 16:30:00,100.6,99.9,28.33,South,180,13.0,15.0,0,0.00,,,0.00,meteohub,2013-07-05 21:30:00,
2013-07-05 16:35:00,99.5,99.5,28.33,NW,315,12.0,17.0,0,0.00,,,0.00,meteohub,2013-07-05 21:35:00,
2013-07-05 16:40:00,100.2,99.9,28.33,SW,225,13.0,17.0,0,0.00,,,0.00,meteohub,2013-07-05 21:40:00,
2013-07-05 16:45:00,100.8,99.9,28.33,East,90,8.0,17.0,0,0.00,,,0.00,meteohub,2013-07-05 21:45:00,
2013-07-05 16:50:00,100.6,99.9,28.33,East,90,4.0,16.0,0,0.00,,,0.00,meteohub,2013-07-05 21:50:00,
2013-07-05 16:55:00,100.9,99.9,28.33,SE,135,5.0,16.0,0,0.00,,,0.00,meteohub,2013-07-05 21:55:00,
2013-07-05 17:00:00,100.9,99.9,28.32,SE,135,11.0,16.0,0,0.00,,,0.00,meteohub,2013-07-05 22:00:00,
2013-07-05 17:05:00,100.6,99.9,28.32,SE,135,11.0,15.0,0,0.00,,,0.00,meteohub,2013-07-05 22:05:00,
2013-07-05 17:10:00,101.1,99.9,28.32,SE,135,5.0,15.0,0,0.00,,,0.00,meteohub,2013-07-05 22:10:00,
2013-07-05 17:15:00,100.9,99.9,28.32,East,90,8.0,15.0,0,0.00,,,0.00,meteohub,2013-07-05 22:15:00,
2013-07-05 17:20:00,101.1,99.9,28.32,SW,225,8.0,13.0,0,0.00,,,0.00,meteohub,2013-07-05 22:20:00,
2013-07-05 17:25:00,100.4,99.9,28.32,SE,135,9.0,13.0,0,0.00,,,0.00,meteohub,2013-07-05 22:25:00,
2013-07-05 17:30:00,100.0,99.9,28.31,SW,225,8.0,15.0,0,0.00,,,0.00,meteohub,2013-07-05 22:30:00,
2013-07-05 17:35:00,100.4,99.9,28.31,SE,135,8.0,15.0,0,0.00,,,0.00,meteohub,2013-07-05 22:35:00,
2013-07-05 17:40:00,100.6,99.9,28.32,South,180,8.0,15.0,0,0.00,,,0.00,meteohub,2013-07-05 22:40:00,
2013-07-05 17:45:00,100.6,99.9,28.31,SSW,203,8.0,10.0,0,0.00,,,0.00,meteohub,2013-07-05 22:45:00,
2013-07-05 17:50:00,100.4,99.9,28.31,SE,135,8.0,12.0,0,0.00,,,0.00,meteohub,2013-07-05 22:50:00,
2013-07-05 17:55:00,99.5,99.5,28.31,SSE,158,11.0,17.0,0,0.00,,,0.00,meteohub,2013-07-05 22:55:00,
2013-07-05 18:00:00,99.7,99.7,28.31,East,90,9.0,17.0,0,0.00,,,0.00,meteohub,2013-07-05 23:00:00,
2013-07-05 18:06:00,100.0,99.9,28.31,East,90,10.0,17.0,0,0.00,,,0.00,meteohub,2013-07-05 23:06:00,
2013-07-05 18:11:00,100.0,99.9,28.31,SE,135,9.0,11.0,0,0.00,,,0.00,meteohub,2013-07-05 23:11:00,
2013-07-05 18:16:00,99.7,99.7,28.31,SE,135,13.0,13.0,0,0.00,,,0.00,meteohub,2013-07-05 23:16:00,
2013-07-05 18:21:00,99.9,99.9,28.30,SE,135,10.0,13.0,0,0.00,,,0.00,meteohub,2013-07-05 23:21:00,
2013-07-05 18:26:00,99.7,99.7,28.30,North,0,8.0,13.0,0,0.00,,,0.00,meteohub,2013-07-05 23:26:00,
2013-07-05 18:31:00,99.9,99.9,28.30,SE,135,8.0,13.0,0,0.00,,,0.00,meteohub,2013-07-05 23:31:00,
2013-07-05 18:36:00,99.7,99.7,28.30,East,90,13.0,13.0,0,0.00,,,0.00,meteohub,2013-07-05 23:36:00,
2013-07-05 18:41:00,99.3,99.3,28.30,ESE,113,12.0,13.0,0,0.00,,,0.00,meteohub,2013-07-05 23:41:00,
2013-07-05 18:46:00,99.0,99.0,28.30,South,180,10.0,13.0,0,0.00,,,0.00,meteohub,2013-07-05 23:46:00,
2013-07-05 18:51:00,98.8,98.8,28.30,NE,45,6.0,18.0,0,0.00,,,0.00,meteohub,2013-07-05 23:51:00,
2013-07-05 18:56:00,98.8,98.8,28.30,East,90,7.0,18.0,0,0.00,,,0.00,meteohub,2013-07-05 23:56:00,
2013-07-05 19:01:00,98.6,98.6,28.30,South,180,8.0,18.0,0,0.00,,,0.00,meteohub,2013-07-06 00:01:00,
2013-07-05 19:06:00,98.6,98.6,28.31,SE,135,12.0,12.0,0,0.00,,,0.00,meteohub,2013-07-06 00:06:00,
2013-07-05 19:11:00,98.2,98.2,28.31,East,90,10.0,12.0,0,0.00,,,0.00,meteohub,2013-07-06 00:11:00,
2013-07-05 19:16:00,98.2,98.2,28.31,North,0,8.0,12.0,0,0.00,,,0.00,meteohub,2013-07-06 00:16:00,
2013-07-05 19:22:00,97.3,97.3,28.31,East,90,6.0,12.0,0,0.00,,,0.00,meteohub,2013-07-06 00:22:00,
2013-07-05 19:27:00,96.8,96.8,28.31,South,180,8.0,15.0,0,0.00,,,0.00,meteohub,2013-07-06 00:27:00,
2013-07-05 19:32:00,96.8,96.8,28.31,SSE,158,11.0,15.0,0,0.00,,,0.00,meteohub,2013-07-06 00:32:00,
2013-07-05 19:37:00,96.1,30.7,28.31,SE,135,5.0,15.0,10,0.00,,,0.00,meteohub,2013-07-06 00:37:00,
2013-07-05 19:42:00,96.1,30.7,28.31,East,90,10.0,14.0,10,0.00,,,0.00,meteohub,2013-07-06 00:42:00,
2013-07-05 19:47:00,96.3,30.9,28.31,East,90,11.0,14.0,10,0.00,,,0.00,meteohub,2013-07-06 00:47:00,
2013-07-05 19:52:00,96.4,30.9,28.31,South,180,11.0,13.0,10,0.00,,,0.00,meteohub,2013-07-06 00:52:00,
2013-07-05 19:57:00,96.1,30.7,28.31,NE,45,8.0,12.0,10,0.00,,,0.00,meteohub,2013-07-06 00:57:00,
2013-07-05 20:02:00,96.3,33.3,28.31,North,0,5.0,12.0,11,0.00,,,0.00,meteohub,2013-07-06 01:02:00,
2013-07-05 20:07:00,95.9,30.6,28.31,SE,135,6.0,11.0,10,0.00,,,0.00,meteohub,2013-07-06 01:07:00,
2013-07-05 20:12:00,95.7,30.4,28.32,SE,135,7.0,10.0,10,0.00,,,0.00,meteohub,2013-07-06 01:12:00,
2013-07-05 20:17:00,95.5,32.7,28.32,SE,135,4.0,11.0,11,0.00,,,0.00,meteohub,2013-07-06 01:17:00,
2013-07-05 20:22:00,95.2,30.0,28.32,SW,225,4.0,11.0,10,0.00,,,0.00,meteohub,2013-07-06 01:22:00,
2013-07-05 20:27:00,94.8,29.8,28.32,SE,135,5.0,11.0,10,0.00,,,0.00,meteohub,2013-07-06 01:27:00,
2013-07-05 20:32:00,94.5,29.5,28.32,SE,135,8.0,8.0,10,0.00,,,0.00,meteohub,2013-07-06 01:32:00,
2013-07-05 20:37:00,94.1,31.6,28.32,South,180,5.0,8.0,11,0.00,,,0.00,meteohub,2013-07-06 01:37:00,
2013-07-05 20:42:00,93.7,31.3,28.32,East,90,1.0,8.0,11,0.00,,,0.00,meteohub,2013-07-06 01:42:00,
2013-07-05 20:47:00,93.0,32.9,28.32,South,180,3.0,8.0,12,0.00,,,0.00,meteohub,2013-07-06 01:47:00,
2013-07-05 20:52:00,92.5,32.5,28.33,East,90,2.0,5.0,12,0.00,,,0.00,meteohub,2013-07-06 01:52:00,
2013-07-05 20:57:00,92.1,34.2,28.33,SE,135,1.0,4.0,13,0.00,,,0.00,meteohub,2013-07-06 01:57:00,
2013-07-05 21:02:00,91.4,33.6,28.33,SE,135,8.0,8.0,13,0.00,,,0.00,meteohub,2013-07-06 02:02:00,
2013-07-05 21:07:00,91.4,33.6,28.33,East,90,4.0,7.0,13,0.00,,,0.00,meteohub,2013-07-06 02:07:00,
2013-07-05 21:12:00,90.7,33.1,28.33,SE,135,2.0,8.0,13,0.00,,,0.00,meteohub,2013-07-06 02:12:00,
2013-07-05 21:17:00,90.3,34.7,28.34,South,180,4.0,8.0,14,0.00,,,0.00,meteohub,2013-07-06 02:17:00,
2013-07-05 21:22:00,90.0,34.3,28.34,SE,135,3.0,7.0,14,0.00,,,0.00,meteohub,2013-07-06 02:22:00,
2013-07-05 21:27:00,90.0,34.3,28.34,South,180,1.0,4.0,14,0.00,,,0.00,meteohub,2013-07-06 02:27:00,
2013-07-05 21:32:00,89.8,34.2,28.34,NE,45,1.0,8.0,14,0.00,,,0.00,meteohub,2013-07-06 02:32:00,
2013-07-05 21:37:00,89.2,33.8,28.34,SE,135,1.0,8.0,14,0.00,,,0.00,meteohub,2013-07-06 02:37:00,
2013-07-05 21:43:00,89.2,33.8,28.35,SE,135,6.0,6.0,14,0.00,,,0.00,meteohub,2013-07-06 02:43:00,
2013-07-05 21:48:00,88.9,35.2,28.35,NE,45,5.0,8.0,15,0.00,,,0.00,meteohub,2013-07-06 02:48:00,
2013-07-05 21:53:00,88.3,34.9,28.35,East,90,1.0,11.0,15,0.00,,,0.00,meteohub,2013-07-06 02:53:00,
2013-07-05 21:58:00,88.3,34.9,28.35,East,90,8.0,11.0,15,0.00,,,0.00,meteohub,2013-07-06 02:58:00,
2013-07-05 22:03:00,88.2,34.7,28.36,ESE,113,8.0,11.0,15,0.00,,,0.00,meteohub,2013-07-06 03:03:00,
2013-07-05 22:08:00,88.0,34.5,28.36,East,90,8.0,11.0,15,0.00,,,0.00,meteohub,2013-07-06 03:08:00,
2013-07-05 22:13:00,87.8,36.0,28.37,East,90,14.0,14.0,16,0.00,,,0.00,meteohub,2013-07-06 03:13:00,
2013-07-05 22:18:00,87.6,36.0,28.37,NE,45,1.0,14.0,16,0.00,,,0.00,meteohub,2013-07-06 03:18:00,
2013-07-05 22:23:00,86.9,36.9,28.37,NE,45,4.0,14.0,17,0.00,,,0.00,meteohub,2013-07-06 03:23:00,
2013-07-05 22:28:00,86.5,37.9,28.37,East,90,9.0,14.0,18,0.00,,,0.00,meteohub,2013-07-06 03:28:00,
2013-07-05 22:33:00,86.0,40.3,28.37,East,90,15.0,15.0,20,0.00,,,0.00,meteohub,2013-07-06 03:33:00,
2013-07-05 22:38:00,85.8,41.4,28.37,East,90,16.0,16.0,21,0.00,,,0.00,meteohub,2013-07-06 03:38:00,
2013-07-05 22:43:00,86.0,41.5,28.38,SE,135,8.0,16.0,21,0.00,,,0.00,meteohub,2013-07-06 03:43:00,
2013-07-05 22:48:00,85.8,42.6,28.38,East,90,7.0,16.0,22,0.00,,,0.00,meteohub,2013-07-06 03:48:00,
2013-07-05 22:53:00,85.5,43.5,28.38,East,90,8.0,16.0,23,0.00,,,0.00,meteohub,2013-07-06 03:53:00,
2013-07-05 22:58:00,85.1,44.2,28.38,East,90,8.0,12.0,24,0.00,,,0.00,meteohub,2013-07-06 03:58:00,
2013-07-05 23:01:00,84.9,45.1,28.38,NE,45,11.0,12.0,25,0.00,,,0.00,meteohub,2013-07-06 04:01:00,
2013-07-05 23:06:00,84.9,46.2,28.38,East,90,11.0,14.0,26,0.00,,,0.00,meteohub,2013-07-06 04:06:00,
2013-07-05 23:11:00,84.9,47.1,28.38,East,90,13.0,15.0,27,0.00,,,0.00,meteohub,2013-07-06 04:11:00,
2013-07-05 23:17:00,84.7,47.1,28.38,East,90,8.0,15.0,27,0.00,,,0.00,meteohub,2013-07-06 04:17:00,
2013-07-05 23:22:00,84.7,48.0,28.39,NE,45,10.0,15.0,28,0.00,,,0.00,meteohub,2013-07-06 04:22:00,
2013-07-05 23:27:00,84.6,48.7,28.39,East,90,10.0,15.0,29,0.00,,,0.00,meteohub,2013-07-06 04:27:00,
2013-07-05 23:32:00,84.2,49.5,28.39,East,90,14.0,15.0,30,0.00,,,0.00,meteohub,2013-07-06 04:32:00,
2013-07-05 23:37:00,84.4,49.6,28.39,East,90,12.0,15.0,30,0.00,,,0.00,meteohub,2013-07-06 04:37:00,
2013-07-05 23:42:00,84.4,49.6,28.39,East,90,8.0,15.0,30,0.00,,,0.00,meteohub,2013-07-06 04:42:00,
2013-07-05 23:47:00,84.0,50.2,28.39,SE,135,4.0,15.0,31,0.00,,,0.00,meteohub,2013-07-06 04:47:00,
2013-07-05 23:52:00,83.7,50.7,28.39,SE,135,11.0,15.0,32,0.00,,,0.00,meteohub,2013-07-06 04:52:00,
2013-07-05 23:57:00,84.0,50.9,28.40,East,90,9.0,15.0,32,0.00,,,0.00,meteohub,2013-07-06 04:57:00,